OK1FET-5 Weather Reports


Display with metric or nautical units.
time (UTC)temp
F
wind
direction
speed
MPH
gust
MPH
rain 1hr
in
rain 24hr
in
rain mn
in
humidity
%
barometer
mb
20260508111231 62 166 2.0 3.0 0.00 0.00 0.00 72 1020.1
20260508110736 62 72 3.0 5.0 0.00 0.00 0.00 71 1020.1
20260508110241 62 92 4.0 6.0 0.00 0.00 0.00 69 1020.2
20260508105746 64 75 4.0 5.0 0.00 0.00 0.00 70 1020.2
20260508105251 64 72 3.0 6.0 0.00 0.00 0.00 71 1020.0
20260508104756 65 165 3.0 7.0 0.00 0.00 0.00 64 1020.1
20260508104301 64 324 2.0 4.0 0.00 0.00 0.00 71 1020.2
20260508103311 65 114 3.0 5.0 0.00 0.00 0.00 68 1020.2
20260508102816 65 105 3.0 5.0 0.00 0.00 0.00 69 1020.2
20260508102321 64 143 2.0 5.0 0.00 0.00 0.00 69 1020.3
20260508101826 64 293 1.0 2.0 0.00 0.00 0.00 70 1020.3
20260508101331 64 332 2.0 5.0 0.00 0.00 0.00 71 1020.3
20260508100836 63 117 5.0 9.0 0.00 0.00 0.00 68 1020.3
20260508100341 62 126 4.0 6.0 0.00 0.00 0.00 69 1020.1
20260508095846 61 79 3.0 4.0 0.00 0.00 0.00 71 1020.2
20260508095352 60 108 4.0 6.0 0.00 0.00 0.00 72 1020.2
20260508094857 61 117 4.0 5.0 0.00 0.00 0.00 70 1020.2
20260508094402 62 91 2.0 4.0 0.00 0.00 0.00 73 1020.2
20260508093907 60 109 3.0 5.0 0.00 0.00 0.00 72 1020.3
20260508093413 60 59 3.0 5.0 0.00 0.00 0.00 73 1020.3
20260508092918 60 106 2.0 3.0 0.00 0.00 0.00 73 1020.4
20260508092423 60 27 2.0 3.0 0.00 0.00 0.00 72 1020.3
20260508091929 60 34 2.0 3.0 0.00 0.00 0.00 72 1020.4
20260508091434 61 13 2.0 3.0 0.00 0.00 0.00 71 1020.3
20260508090939 61 268 1.0 3.0 0.00 0.00 0.00 72 1020.3
20260508090445 60 267 1.0 3.0 0.00 0.00 0.00 73 1020.3
20260508085950 58 354 1.0 2.0 0.00 0.00 0.00 74 1020.3
20260508085456 57 309 3.0 5.0 0.00 0.00 0.00 74 1020.3
20260508085001 56 169 2.0 3.0 0.00 0.00 0.00 75 1020.4
20260508084506 57 301 2.0 4.0 0.00 0.00 0.00 74 1020.3
20260508084012 57 297 1.0 3.0 0.00 0.00 0.00 75 1020.3
20260508083517 57 277 1.0 2.0 0.00 0.00 0.00 74 1020.2
20260508083024 57 290 2.0 3.0 0.00 0.00 0.00 74 1020.2
20260508082528 57 303 1.0 3.0 0.00 0.00 0.00 75 1020.1
20260508082034 57 297 1.0 2.0 0.00 0.00 0.00 74 1020.2
20260508081539 57 215 1.0 3.0 0.00 0.00 0.00 75 1020.2
20260508081045 57 284 1.0 3.0 0.00 0.00 0.00 74 1020.2
20260508080550 57 187 2.0 3.0 0.00 0.00 0.00 74 1020.1
20260508080056 58 35 2.0 3.0 0.00 0.00 0.00 73 1020.0
20260508075106 57 233 2.0 4.0 0.00 0.00 0.00 74 1020.0
20260508074612 57 301 2.0 3.0 0.00 0.00 0.00 75 1019.9
20260508074117 56 45 2.0 5.0 0.00 0.00 0.00 75 1020.0
20260508073623 56 331 2.0 3.0 0.00 0.00 0.00 75 1019.9
20260508073129 56 296 2.0 3.0 0.00 0.00 0.00 76 1019.9
20260508072140 56 209 2.0 3.0 0.00 0.00 0.00 75 1019.8
20260508071645 56 308 2.0 5.0 0.00 0.00 0.00 75 1019.7
20260508071151 55 231 1.0 3.0 0.00 0.00 0.00 77 1019.7
20260508070656 54 117 2.0 3.0 0.00 0.00 0.00 77 1019.7
20260508070202 53 132 1.0 3.0 0.00 0.00 0.00 78 1019.6
20260508065708 53 298 2.0 4.0 0.00 0.00 0.00 78 1019.6
20260508065213 53 323 2.0 5.0 0.00 0.00 0.00 78 1019.5
20260508064719 52 283 1.0 3.0 0.00 0.00 0.00 79 1019.5
20260508064225 52 251 1.0 2.0 0.00 0.00 0.00 79 1019.5
20260508063731 52 266 1.0 2.0 0.00 0.00 0.00 79 1019.5
20260508063237 51 61 1.0 3.0 0.00 0.00 0.00 79 1019.4
20260508062742 51 19 2.0 5.0 0.00 0.00 0.00 79 1019.3
20260508062248 51 360 1.0 3.0 0.00 0.00 0.00 79 1019.4
20260508061754 51 19 2.0 3.0 0.00 0.00 0.00 80 1019.3
20260508061300 51 244 1.0 3.0 0.00 0.00 0.00 80 1019.3
20260508060806 50 142 2.0 3.0 0.00 0.00 0.00 81 1019.3
20260508060312 50 291 1.0 3.0 0.00 0.00 0.00 81 1019.3
20260508055817 50 72 1.0 3.0 0.00 0.00 0.00 81 1019.2
20260508055323 50 189 1.0 3.0 0.00 0.00 0.00 82 1019.2
20260508054829 50 298 1.0 3.0 0.00 0.00 0.00 81 1019.1
20260508054335 49 280 1.0 2.0 0.00 0.00 0.00 82 1019.1
20260508053841 49 258 1.0 2.0 0.00 0.00 0.00 82 1019.0
20260508053346 49 247 1.0 3.0 0.00 0.00 0.00 82 1018.9
20260508052852 49 216 1.0 3.0 0.00 0.00 0.00 82 1018.9
20260508052358 49 196 1.0 2.0 0.00 0.00 0.00 82 1018.9
20260508051904 49 187 1.0 2.0 0.00 0.00 0.00 82 1018.8
20260508051410 49 258 1.0 3.0 0.00 0.00 0.00 82 1018.8
20260508050916 48 312 1.0 2.0 0.00 0.00 0.00 82 1018.8
20260508050422 48 319 1.0 2.0 0.00 0.00 0.00 82 1018.7
20260508045928 48 286 1.0 2.0 0.00 0.00 0.00 82 1018.7
20260508045433 48 308 1.0 4.0 0.00 0.00 0.00 83 1018.8
20260508044939 48 340 1.0 3.0 0.00 0.00 0.00 83 1018.7
20260508044446 48 307 2.0 7.0 0.00 0.00 0.00 83 1018.7
20260508043951 48 355 2.0 3.0 0.00 0.00 0.00 83 1018.7
20260508043457 47 327 1.0 3.0 0.00 0.00 0.00 84 1018.7
20260508043003 47 325 1.0 3.0 0.00 0.00 0.00 84 1018.7
20260508042509 47 307 1.0 3.0 0.00 0.00 0.00 85 1018.6
20260508042015 46 312 1.0 2.0 0.00 0.00 0.00 85 1018.6
20260508041521 46 297 1.0 3.0 0.00 0.00 0.00 86 1018.6
20260508041027 46 310 1.0 1.0 0.00 0.00 0.00 86 1018.6
20260508040533 45 337 1.0 3.0 0.00 0.00 0.00 86 1018.7
20260508040039 45 325 1.0 3.0 0.00 0.00 0.00 86 1018.6
20260508035545 45 324 1.0 3.0 0.00 0.00 0.00 86 1018.6
20260508035051 45 335 2.0 5.0 0.00 0.00 0.00 86 1018.6
20260508034557 45 353 1.0 3.0 0.00 0.00 0.00 86 1018.5
20260508033610 45 5 1.0 3.0 0.00 0.00 0.00 86 1018.4
20260508033116 45 346 2.0 5.0 0.00 0.00 0.00 86 1018.4
20260508032622 45 332 2.0 5.0 0.00 0.00 0.00 86 1018.4
20260508031140 45 321 1.0 3.0 0.00 0.00 0.00 86 1018.2
20260508030646 45 336 1.0 3.0 0.00 0.00 0.00 86 1018.2
20260508030151 45 55 1.0 2.0 0.00 0.00 0.00 86 1018.1
20260508025658 45 333 1.0 2.0 0.00 0.00 0.00 85 1018.1
20260508025204 45 327 1.0 2.0 0.00 0.00 0.00 85 1018.1
20260508024710 45 348 1.0 2.0 0.00 0.00 0.00 85 1018.1
20260508024216 45 317 1.0 2.0 0.00 0.00 0.00 85 1018.1
20260508023722 45 267 1.0 2.0 0.00 0.00 0.00 85 1018.2
20260508023228 45 337 1.0 3.0 0.00 0.00 0.00 85 1018.2
20260508022734 46 328 1.0 2.0 0.00 0.00 0.00 85 1018.1
20260508022240 46 329 1.0 3.0 0.00 0.00 0.00 85 1018.2
20260508021746 46 343 1.0 2.0 0.00 0.00 0.00 85 1018.1
20260508021252 46 288 1.0 3.0 0.00 0.00 0.00 85 1018.1
20260508020758 46 288 1.0 2.0 0.00 0.00 0.00 85 1018.2
20260508020304 46 8 1.0 3.0 0.00 0.00 0.00 85 1018.1
20260508015810 46 315 2.0 3.0 0.00 0.00 0.00 85 1018.1
20260508015316 46 31 2.0 3.0 0.00 0.00 0.00 85 1018.1
20260508014822 46 1 2.0 5.0 0.00 0.00 0.00 85 1018.1
20260508014328 46 349 1.0 3.0 0.00 0.00 0.00 85 1018.1
20260508013834 46 319 1.0 2.0 0.00 0.00 0.00 85 1018.2
20260508013340 46 356 1.0 2.0 0.00 0.00 0.00 85 1018.2
20260508012846 46 298 1.0 2.0 0.00 0.00 0.00 85 1018.1
20260508012352 46 336 1.0 2.0 0.00 0.00 0.00 85 1018.1
20260508011858 46 9 1.0 3.0 0.00 0.00 0.00 85 1018.0
20260508011404 46 325 1.0 2.0 0.00 0.00 0.00 85 1017.9
20260508010910 45 345 1.0 2.0 0.00 0.00 0.00 85 1018.0
20260508010416 45 295 1.0 2.0 0.00 0.00 0.00 85 1018.0
20260508005922 45 325 1.0 3.0 0.00 0.00 0.00 85 1018.0
20260508005428 45 330 0.0 2.0 0.00 0.00 0.00 85 1018.0
20260508004934 45 289 0.0 1.0 0.00 0.00 0.00 85 1018.0
20260508004440 45 291 0.0 0.0 0.00 0.00 0.00 85 1018.1
20260508003946 45 340 1.0 2.0 0.00 0.00 0.00 85 1018.1
20260508003452 45 233 0.0 3.0 0.00 0.00 0.00 85 1018.1
20260508002958 45 226 1.0 2.0 0.00 0.00 0.00 85 1018.1
20260508002504 45 277 1.0 3.0 0.00 0.00 0.00 85 1018.0
20260508002010 45 252 0.0 1.0 0.00 0.00 0.00 85 1018.0
20260508001516 45 168 0.0 1.0 0.00 0.00 0.00 84 1018.0
20260508001022 45 33 1.0 2.0 0.00 0.00 0.00 84 1018.1
20260508000528 45 9 1.0 2.0 0.00 0.00 0.00 84 1018.0
20260508000034 45 310 1.0 1.0 0.00 0.00 0.00 83 1018.0
20260507235540 46 330 1.0 2.0 0.00 0.00 0.00 83 1018.0
20260507235046 46 296 0.0 1.0 0.00 0.00 0.00 83 1018.0
20260507234552 46 296 1.0 2.0 0.00 0.00 0.00 83 1018.0
20260507234058 47 339 1.0 3.0 0.00 0.00 0.00 83 1018.0
20260507233604 47 318 1.0 2.0 0.00 0.00 0.00 83 1018.0
20260507233110 47 316 1.0 2.0 0.00 0.00 0.00 83 1018.1
20260507232122 47 293 1.0 2.0 0.00 0.00 0.00 83 1018.0
20260507231628 48 313 1.0 3.0 0.00 0.00 0.00 83 1018.0
20260507230640 48 329 2.0 3.0 0.00 0.00 0.00 83 1017.9
20260507230145 48 298 1.0 3.0 0.00 0.00 0.00 82 1017.9
20260507225651 48 327 2.0 5.0 0.00 0.00 0.00 82 1018.0
20260507225157 48 287 1.0 2.0 0.00 0.00 0.00 82 1018.1
20260507224703 48 344 2.0 3.0 0.00 0.00 0.00 82 1018.1
20260507224209 48 349 1.0 2.0 0.00 0.00 0.00 82 1018.1
20260507223715 48 330 2.0 3.0 0.00 0.00 0.00 82 1018.2
20260507223221 48 294 1.0 3.0 0.00 0.00 0.00 82 1018.1
20260507222727 48 337 1.0 2.0 0.00 0.00 0.00 82 1018.2
20260507222233 48 325 1.0 3.0 0.00 0.00 0.00 82 1018.1
20260507221739 48 338 2.0 3.0 0.00 0.00 0.00 82 1018.0
20260507221245 48 345 2.0 5.0 0.00 0.00 0.00 82 1018.0
20260507220750 48 289 2.0 3.0 0.00 0.00 0.00 81 1018.0
20260507220256 48 334 1.0 4.0 0.00 0.00 0.00 81 1018.0
20260507215802 48 328 1.0 3.0 0.00 0.00 0.00 81 1018.0
20260507215309 48 308 1.0 3.0 0.00 0.00 0.00 81 1017.9
20260507214814 48 318 1.0 3.0 0.00 0.00 0.00 81 1017.9
20260507214320 48 336 1.0 3.0 0.00 0.00 0.00 81 1017.9
20260507213826 48 358 1.0 4.0 0.00 0.00 0.00 81 1017.8
20260507213332 48 34 2.0 3.0 0.00 0.00 0.00 81 1017.8
20260507212838 49 306 1.0 2.0 0.00 0.00 0.00 81 1017.7
20260507212344 49 345 1.0 3.0 0.00 0.00 0.00 81 1017.7
20260507211849 49 331 2.0 5.0 0.00 0.00 0.00 81 1017.6
20260507211355 49 323 2.0 5.0 0.00 0.00 0.00 80 1017.5
20260507210901 49 304 2.0 4.0 0.00 0.00 0.00 81 1017.4
20260507210407 49 332 2.0 3.0 0.00 0.00 0.00 81 1017.4
20260507205913 49 11 2.0 5.0 0.00 0.00 0.00 81 1017.4
20260507205419 49 345 2.0 5.0 0.00 0.00 0.00 81 1017.4
20260507204925 49 327 2.0 3.0 0.00 0.00 0.00 81 1017.4
20260507204430 49 0 1.0 4.0 0.00 0.00 0.00 81 1017.4
20260507203936 49 31 1.0 2.0 0.00 0.00 0.00 81 1017.4
20260507203442 49 1 2.0 4.0 0.00 0.00 0.00 81 1017.4
20260507202948 49 286 1.0 5.0 0.00 0.00 0.00 81 1017.3
20260507202454 49 243 1.0 2.0 0.00 0.00 0.00 81 1017.3
20260507202000 49 21 1.0 3.0 0.00 0.00 0.00 81 1017.2
20260507201506 49 342 1.0 3.0 0.00 0.00 0.00 81 1017.1
20260507201012 49 109 1.0 2.0 0.00 0.00 0.00 81 1017.1
20260507200517 49 14 2.0 3.0 0.00 0.00 0.00 81 1017.0
20260507200023 49 345 2.0 5.0 0.00 0.00 0.00 81 1016.9
20260507195529 49 169 2.0 4.0 0.00 0.00 0.00 82 1016.9
20260507195035 49 273 2.0 3.0 0.00 0.00 0.00 81 1016.8
20260507194541 49 346 1.0 3.0 0.00 0.00 0.00 81 1016.7
20260507194047 49 5 2.0 4.0 0.00 0.00 0.00 81 1016.6
20260507193553 49 262 1.0 4.0 0.00 0.00 0.00 81 1016.6
20260507193059 49 354 2.0 3.0 0.00 0.00 0.00 81 1016.5
20260507192605 49 334 2.0 5.0 0.00 0.00 0.00 81 1016.5
20260507192111 49 3 2.0 3.0 0.00 0.00 0.00 81 1016.4
20260507191617 49 333 1.0 3.0 0.00 0.00 0.00 80 1016.4
20260507191122 49 223 1.0 3.0 0.00 0.00 0.00 80 1016.4
20260507190628 49 293 1.0 3.0 0.00 0.00 0.00 81 1016.3
20260507185640 49 285 1.0 2.0 0.00 0.00 0.00 80 1016.1
20260507185146 50 340 1.0 2.0 0.00 0.00 0.00 80 1015.9
20260507184651 50 285 1.0 2.0 0.00 0.00 0.00 80 1015.8
20260507183703 50 307 1.0 3.0 0.00 0.00 0.00 80 1015.7
20260507183209 50 300 2.0 4.0 0.00 0.00 0.00 79 1015.7
20260507182715 51 282 2.0 4.0 0.00 0.00 0.00 79 1015.6
20260507182220 51 246 1.0 3.0 0.00 0.00 0.00 79 1015.6
20260507181726 51 355 2.0 3.0 0.00 0.00 0.00 80 1015.5
20260507181232 51 343 2.0 6.0 0.00 0.00 0.00 80 1015.4
20260507180738 52 13 2.0 4.0 0.00 0.00 0.00 80 1015.3
20260507180243 52 354 2.0 3.0 0.00 0.00 0.00 80 1015.2
20260507175749 52 332 2.0 5.0 0.00 0.00 0.00 80 1015.3
20260507175255 52 329 2.0 6.0 0.00 0.00 0.00 80 1015.1
20260507174801 52 318 2.0 5.0 0.00 0.00 0.00 80 1015.0
20260507174306 52 6 2.0 5.0 0.00 0.00 0.00 79 1015.0
20260507173812 52 333 1.0 3.0 0.00 0.00 0.00 79 1014.9
20260507172823 53 175 1.0 3.0 0.00 0.00 0.00 79 1014.8
20260507172329 53 327 1.0 2.0 0.00 0.00 0.00 79 1014.8
20260507171835 54 6 2.0 3.0 0.00 0.00 0.00 79 1014.8
20260507171341 54 9 2.0 3.0 0.00 0.00 0.00 78 1014.8
20260507170846 54 356 1.0 2.0 0.00 0.00 0.00 78 1014.7
20260507170352 54 335 1.0 3.0 0.00 0.00 0.00 77 1014.7
20260507165857 55 282 1.0 2.0 0.00 0.00 0.00 77 1014.6
20260507165403 55 192 1.0 3.0 0.00 0.00 0.00 77 1014.6
20260507164909 55 46 2.0 3.0 0.00 0.00 0.00 77 1014.5
20260507164414 55 70 2.0 3.0 0.00 0.00 0.00 77 1014.5
20260507163920 56 280 2.0 4.0 0.00 0.00 0.00 76 1014.5
20260507163425 56 167 2.0 3.0 0.00 0.00 0.00 77 1014.3
20260507162931 56 330 2.0 5.0 0.00 0.00 0.00 76 1014.3
20260507162436 56 172 2.0 5.0 0.00 0.00 0.00 76 1014.3
20260507161942 56 338 2.0 5.0 0.00 0.00 0.00 76 1014.3
20260507161448 56 322 2.0 5.0 0.00 0.00 0.00 75 1014.2
20260507160953 56 314 3.0 6.0 0.00 0.00 0.00 75 1014.3
20260507160459 57 318 3.0 6.0 0.00 0.00 0.00 76 1014.3
20260507160004 57 308 4.0 7.0 0.00 0.00 0.00 77 1014.3
20260507155510 58 323 3.0 5.0 0.00 0.00 0.00 76 1014.2
20260507155015 58 310 3.0 4.0 0.00 0.00 0.00 75 1014.1
20260507154521 58 330 3.0 7.0 0.00 0.00 0.00 74 1014.1
20260507154026 58 313 3.0 4.0 0.00 0.00 0.00 74 1014.0
20260507153532 59 329 3.0 6.0 0.00 0.00 0.00 73 1013.9
20260507152542 58 322 3.0 5.0 0.00 0.00 0.00 73 1013.9
20260507152048 58 313 2.0 5.0 0.00 0.00 0.00 72 1013.8
20260507151553 58 328 3.0 5.0 0.00 0.00 0.00 72 1013.9
20260507150604 59 357 2.0 4.0 0.00 0.00 0.00 70 1013.8
20260507150110 59 15 3.0 6.0 0.00 0.00 0.00 70 1013.8
20260507145120 59 332 3.0 6.0 0.00 0.00 0.00 70 1013.8
20260507144626 59 344 4.0 9.0 0.00 0.00 0.00 70 1013.7
20260507144131 59 330 3.0 8.0 0.00 0.00 0.00 70 1013.6
20260507143637 59 333 4.0 8.0 0.00 0.00 0.00 70 1013.6
20260507143142 59 325 5.0 8.0 0.00 0.00 0.00 70 1013.6
20260507142153 59 322 4.0 9.0 0.00 0.00 0.00 69 1013.6
20260507141658 59 311 6.0 10.0 0.00 0.00 0.00 67 1013.5
20260507141204 61 309 6.0 12.0 0.00 0.00 0.00 64 1013.4
20260507140710 62 313 5.0 10.0 0.00 0.00 0.00 62 1013.4
20260507140214 63 285 5.0 10.0 0.00 0.00 0.00 60 1013.3
20260507135719 64 315 4.0 9.0 0.00 0.00 0.00 59 1013.1
20260507135224 65 297 5.0 8.0 0.00 0.00 0.00 58 1013.0
20260507134234 66 257 4.0 7.0 0.00 0.00 0.00 62 1013.1
20260507133740 67 252 4.0 9.0 0.00 0.00 0.00 62 1013.0
20260507132749 66 266 6.0 9.0 0.00 0.00 0.00 63 1013.1
20260507132255 65 246 4.0 7.0 0.00 0.00 0.00 62 1013.0
20260507131305 64 298 4.0 8.0 0.00 0.00 0.00 61 1013.0
20260507130810 65 310 3.0 5.0 0.00 0.00 0.00 61 1013.0
20260507130315 65 293 2.0 5.0 0.00 0.00 0.00 62 1013.0
20260507125820 65 298 4.0 6.0 0.00 0.00 0.00 62 1013.0
20260507124831 66 279 4.0 8.0 0.00 0.00 0.00 63 1013.0
20260507124336 66 260 6.0 10.0 0.00 0.00 0.00 63 1013.0
20260507123841 66 291 4.0 7.0 0.00 0.00 0.00 61 1012.9
20260507123346 66 268 4.0 7.0 0.00 0.00 0.00 64 1012.9
20260507122851 65 279 4.0 8.0 0.00 0.00 0.00 63 1012.9
20260507121901 65 275 4.0 8.0 0.00 0.00 0.00 62 1012.9
20260507121407 65 253 3.0 11.0 0.00 0.00 0.00 63 1012.8
20260507120912 64 284 4.0 7.0 0.00 0.00 0.00 62 1012.8
20260507115922 64 272 5.0 8.0 0.00 0.00 0.00 63 1012.8
20260507115428 64 257 6.0 11.0 0.00 0.00 0.00 64 1012.8
20260507114933 64 231 5.0 8.0 0.00 0.00 0.00 64 1012.8
20260507114438 64 279 4.0 7.0 0.00 0.00 0.00 64 1012.8
20260507113944 64 285 5.0 8.0 0.00 0.00 0.00 64 1012.8
20260507113449 64 255 7.0 13.0 0.00 0.00 0.00 64 1012.7
20260507112954 64 264 5.0 10.0 0.00 0.00 0.00 65 1012.7
20260507112459 64 291 5.0 10.0 0.00 0.00 0.00 65 1012.6
20260507112005 64 282 6.0 9.0 0.00 0.00 0.00 63 1012.6
20260507111510 63 286 6.0 9.0 0.00 0.00 0.00 63 1012.4